Time,TemperatureF,DewpointF,PressureIn,WindDirection,WindDirectionDegrees,WindSpeedMPH,WindSpeedGustMPH,Humidity,HourlyPrecipIn,Conditions,Clouds,dailyrainin,SoftwareType,DateUTC
2013-02-23 00:00:00,50.6,40.4,30.18,South,188,2.0,2.0,68,0.00,,---,0.00,VWS V14.01,2013-02-23 08:00:00,
2013-02-23 00:05:00,50.5,40.3,30.17,SW,224,3.0,3.0,68,0.00,,---,0.00,VWS V14.01,2013-02-23 08:05:00,
2013-02-23 00:10:00,50.4,40.2,30.17,East,96,1.0,3.0,68,0.00,,---,0.00,VWS V14.01,2013-02-23 08:10:00,
2013-02-23 00:15:00,50.3,40.5,30.16,SE,126,1.0,6.0,69,0.00,,---,0.00,VWS V14.01,2013-02-23 08:15:00,
2013-02-23 00:20:00,50.2,40.8,30.16,SSW,210,1.0,2.0,70,0.00,,---,0.00,VWS V14.01,2013-02-23 08:20:00,
2013-02-23 00:25:00,50.0,40.6,30.16,SSE,153,1.0,3.0,70,0.00,,---,0.00,VWS V14.01,2013-02-23 08:25:00,
2013-02-23 00:30:00,49.9,40.9,30.16,South,177,2.0,5.0,71,0.00,,---,0.00,VWS V14.01,2013-02-23 08:30:00,
2013-02-23 00:35:00,49.7,41.0,30.16,ESE,121,0.0,5.0,72,0.00,,---,0.00,VWS V14.01,2013-02-23 08:35:00,
2013-02-23 00:40:00,49.4,41.1,30.15,ENE,78,1.0,2.0,73,0.00,,---,0.00,VWS V14.01,2013-02-23 08:40:00,
2013-02-23 00:45:00,49.2,41.3,30.15,SSW,199,1.0,3.0,74,0.00,,---,0.00,VWS V14.01,2013-02-23 08:45:00,
2013-02-23 00:50:00,49.0,41.4,30.14,South,170,1.0,4.0,75,0.00,,---,0.00,VWS V14.01,2013-02-23 08:50:00,
2013-02-23 00:55:00,49.0,41.4,30.14,South,187,7.0,10.0,75,0.00,,---,0.00,VWS V14.01,2013-02-23 08:55:00,
2013-02-23 01:00:00,49.1,41.9,30.13,SSW,201,2.0,7.0,76,0.00,,---,0.00,VWS V14.01,2013-02-23 09:00:00,
2013-02-23 01:05:00,49.1,41.9,30.14,SSW,203,5.0,12.0,76,0.00,,---,0.00,VWS V14.01,2013-02-23 09:05:00,
2013-02-23 01:10:00,49.1,41.9,30.14,South,176,1.0,8.0,76,0.00,,---,0.00,VWS V14.01,2013-02-23 09:10:00,
2013-02-23 01:15:00,49.0,42.1,30.14,SW,217,4.0,8.0,77,0.00,,---,0.00,VWS V14.01,2013-02-23 09:15:00,
2013-02-23 01:20:00,49.0,42.1,30.14,SSW,208,2.0,3.0,77,0.00,,---,0.00,VWS V14.01,2013-02-23 09:20:00,
2013-02-23 01:25:00,49.1,42.2,30.15,South,181,2.0,8.0,77,0.00,,---,0.00,VWS V14.01,2013-02-23 09:25:00,
2013-02-23 01:30:00,49.0,42.1,30.14,SSW,210,3.0,5.0,77,0.00,,---,0.00,VWS V14.01,2013-02-23 09:30:00,
2013-02-23 01:35:00,48.9,42.0,30.15,SSW,211,4.0,9.0,77,0.00,,---,0.00,VWS V14.01,2013-02-23 09:35:00,
2013-02-23 01:40:00,48.9,42.0,30.14,SSW,192,2.0,3.0,77,0.00,,---,0.00,VWS V14.01,2013-02-23 09:40:00,
2013-02-23 01:45:00,48.8,42.3,30.14,SW,214,8.0,9.0,78,0.00,,---,0.00,VWS V14.01,2013-02-23 09:45:00,
2013-02-23 01:50:00,48.7,42.2,30.14,WSW,239,0.0,7.0,78,0.00,,---,0.00,VWS V14.01,2013-02-23 09:50:00,
2013-02-23 01:55:00,48.7,42.2,30.14,SSE,150,0.0,9.0,78,0.00,,---,0.00,VWS V14.01,2013-02-23 09:55:00,
2013-02-23 02:00:00,48.6,42.4,30.14,SSW,207,4.0,5.0,79,0.00,,---,0.00,VWS V14.01,2013-02-23 10:00:00,
2013-02-23 02:05:00,48.5,42.3,30.14,SW,232,2.0,5.0,79,0.00,,---,0.00,VWS V14.01,2013-02-23 10:05:00,
2013-02-23 02:10:00,48.4,42.2,30.14,SSW,192,3.0,3.0,79,0.00,,---,0.00,VWS V14.01,2013-02-23 10:10:00,
2013-02-23 02:15:00,48.3,42.4,30.14,South,177,3.0,7.0,80,0.00,,---,0.00,VWS V14.01,2013-02-23 10:15:00,
2013-02-23 02:20:00,48.2,42.3,30.13,SSW,197,6.0,7.0,80,0.00,,---,0.00,VWS V14.01,2013-02-23 10:20:00,
2013-02-23 02:25:00,48.2,42.3,30.13,SSW,204,3.0,9.0,80,0.00,,---,0.00,VWS V14.01,2013-02-23 10:25:00,
2013-02-23 02:30:00,48.1,42.5,30.13,SW,232,6.0,10.0,81,0.00,,---,0.00,VWS V14.01,2013-02-23 10:30:00,
2013-02-23 02:35:00,48.2,42.7,30.13,SSW,207,6.0,12.0,81,0.00,,---,0.00,VWS V14.01,2013-02-23 10:35:00,
2013-02-23 02:40:00,48.3,42.8,30.13,SSW,211,6.0,6.0,81,0.00,,---,0.00,VWS V14.01,2013-02-23 10:40:00,
2013-02-23 02:45:00,48.3,42.8,30.13,SE,139,1.0,8.0,81,0.00,,---,0.00,VWS V14.01,2013-02-23 10:45:00,
2013-02-23 02:50:00,48.2,42.3,30.13,SW,222,2.0,3.0,80,0.00,,---,0.00,VWS V14.01,2013-02-23 10:50:00,
2013-02-23 02:55:00,48.0,42.5,30.14,East,93,1.0,4.0,81,0.00,,---,0.00,VWS V14.01,2013-02-23 10:55:00,
2013-02-23 03:00:00,47.8,42.3,30.14,SSW,205,1.0,3.0,81,0.00,,---,0.00,VWS V14.01,2013-02-23 11:00:00,
2013-02-23 03:05:00,47.6,42.1,30.13,SE,132,0.0,3.0,81,0.00,,---,0.00,VWS V14.01,2013-02-23 11:05:00,
2013-02-23 03:10:00,47.4,42.2,30.13,SW,222,5.0,5.0,82,0.00,,---,0.00,VWS V14.01,2013-02-23 11:10:00,
2013-02-23 03:15:00,47.3,42.1,30.12,SSW,198,5.0,6.0,82,0.00,,---,0.00,VWS V14.01,2013-02-23 11:15:00,
2013-02-23 03:20:00,47.3,42.1,30.13,SSE,167,2.0,4.0,82,0.00,,---,0.00,VWS V14.01,2013-02-23 11:20:00,
2013-02-23 03:25:00,47.2,42.0,30.13,SSW,198,2.0,5.0,82,0.00,,---,0.00,VWS V14.01,2013-02-23 11:25:00,
2013-02-23 03:30:00,47.1,41.9,30.13,SW,218,0.0,1.0,82,0.00,,---,0.00,VWS V14.01,2013-02-23 11:30:00,
2013-02-23 03:35:00,47.0,41.8,30.13,South,190,1.0,2.0,82,0.00,,---,0.00,VWS V14.01,2013-02-23 11:35:00,
2013-02-23 03:40:00,47.0,41.8,30.13,SSE,156,1.0,3.0,82,0.00,,---,0.00,VWS V14.01,2013-02-23 11:40:00,
2013-02-23 03:45:00,46.9,41.7,30.13,SSW,212,4.0,6.0,82,0.00,,---,0.00,VWS V14.01,2013-02-23 11:45:00,
2013-02-23 03:50:00,46.9,41.7,30.14,SSW,203,5.0,6.0,82,0.00,,---,0.00,VWS V14.01,2013-02-23 11:50:00,
2013-02-23 03:55:00,46.8,41.6,30.13,SE,143,0.0,6.0,82,0.00,,---,0.00,VWS V14.01,2013-02-23 11:55:00,
2013-02-23 04:00:00,46.6,41.7,30.13,South,175,1.0,1.0,83,0.00,,---,0.00,VWS V14.01,2013-02-23 12:00:00,
2013-02-23 04:05:00,46.3,41.7,30.13,SSW,197,1.0,6.0,84,0.00,,---,0.00,VWS V14.01,2013-02-23 12:05:00,
2013-02-23 04:10:00,46.1,41.5,30.13,SSE,155,1.0,1.0,84,0.00,,---,0.00,VWS V14.01,2013-02-23 12:10:00,
2013-02-23 04:15:00,45.8,41.2,30.13,SSE,158,0.0,1.0,84,0.00,,---,0.00,VWS V14.01,2013-02-23 12:15:00,
2013-02-23 04:20:00,45.7,41.5,30.13,SW,228,1.0,2.0,85,0.00,,---,0.00,VWS V14.01,2013-02-23 12:20:00,
2013-02-23 04:25:00,45.5,41.3,30.13,SSW,210,3.0,4.0,85,0.00,,---,0.00,VWS V14.01,2013-02-23 12:25:00,
2013-02-23 04:30:00,45.4,41.2,30.12,SSW,195,3.0,5.0,85,0.00,,---,0.00,VWS V14.01,2013-02-23 12:30:00,
2013-02-23 04:35:00,45.3,41.1,30.13,SSW,197,0.0,5.0,85,0.00,,---,0.00,VWS V14.01,2013-02-23 12:35:00,
2013-02-23 04:40:00,45.1,40.9,30.12,SSE,166,0.0,0.0,85,0.00,,---,0.00,VWS V14.01,2013-02-23 12:40:00,
2013-02-23 04:45:00,44.9,40.7,30.12,SSE,158,0.0,1.0,85,0.00,,---,0.00,VWS V14.01,2013-02-23 12:45:00,
2013-02-23 04:50:00,44.7,40.8,30.13,SSE,162,0.0,0.0,86,0.00,,---,0.00,VWS V14.01,2013-02-23 12:50:00,
2013-02-23 04:55:00,44.5,40.6,30.13,SSW,197,0.0,1.0,86,0.00,,---,0.00,VWS V14.01,2013-02-23 12:55:00,
2013-02-23 05:00:00,44.3,40.4,30.13,SSW,197,0.0,0.0,86,0.00,,---,0.00,VWS V14.01,2013-02-23 13:00:00,
2013-02-23 05:05:00,44.1,40.5,30.14,SSW,198,0.0,0.0,87,0.00,,---,0.00,VWS V14.01,2013-02-23 13:05:00,
2013-02-23 05:10:00,43.9,40.3,30.14,SSE,160,0.0,0.0,87,0.00,,---,0.00,VWS V14.01,2013-02-23 13:10:00,
2013-02-23 05:15:00,43.7,40.1,30.14,SSE,160,0.0,0.0,87,0.00,,---,0.00,VWS V14.01,2013-02-23 13:15:00,
2013-02-23 05:20:00,43.7,40.4,30.14,SSE,160,0.0,0.0,88,0.00,,---,0.00,VWS V14.01,2013-02-23 13:20:00,
2013-02-23 05:25:00,43.5,40.2,30.14,SSW,206,0.0,1.0,88,0.00,,---,0.00,VWS V14.01,2013-02-23 13:25:00,
2013-02-23 05:30:00,43.6,40.3,30.14,SE,127,0.0,1.0,88,0.00,,---,0.00,VWS V14.01,2013-02-23 13:30:00,
2013-02-23 05:35:00,43.5,40.2,30.14,SSE,152,0.0,1.0,88,0.00,,---,0.00,VWS V14.01,2013-02-23 13:35:00,
2013-02-23 05:40:00,43.6,40.6,30.14,ESE,111,0.0,1.0,89,0.00,,---,0.00,VWS V14.01,2013-02-23 13:40:00,
2013-02-23 05:45:00,43.6,40.6,30.14,ESE,111,0.0,1.0,89,0.00,,---,0.00,VWS V14.01,2013-02-23 13:45:00,
2013-02-23 05:50:00,43.6,40.6,30.14,ESE,111,0.0,0.0,89,0.00,,---,0.00,VWS V14.01,2013-02-23 13:50:00,
2013-02-23 05:55:00,43.5,40.5,30.15,ESE,111,0.0,1.0,89,0.00,,---,0.00,VWS V14.01,2013-02-23 13:55:00,
2013-02-23 06:00:00,43.6,40.9,30.15,ESE,115,1.0,1.0,90,0.00,,---,0.00,VWS V14.01,2013-02-23 14:00:00,
2013-02-23 06:05:00,43.5,40.5,30.15,ESE,115,0.0,1.0,89,0.00,,---,0.00,VWS V14.01,2013-02-23 14:05:00,
2013-02-23 06:10:00,43.3,40.6,30.15,ESE,114,1.0,1.0,90,0.00,,---,0.00,VWS V14.01,2013-02-23 14:10:00,
2013-02-23 06:15:00,43.1,40.4,30.15,West,274,0.0,3.0,90,0.00,,---,0.00,VWS V14.01,2013-02-23 14:15:00,
2013-02-23 06:20:00,43.0,40.3,30.16,SSW,211,0.0,1.0,90,0.00,,---,0.00,VWS V14.01,2013-02-23 14:20:00,
2013-02-23 06:25:00,42.8,40.1,30.16,SSE,159,0.0,1.0,90,0.00,,---,0.00,VWS V14.01,2013-02-23 14:25:00,
2013-02-23 06:30:00,42.6,39.9,30.16,SSE,159,0.0,0.0,90,0.00,,---,0.00,VWS V14.01,2013-02-23 14:30:00,
2013-02-23 06:35:00,42.5,40.1,30.16,SSE,159,0.0,0.0,91,0.00,,---,0.00,VWS V14.01,2013-02-23 14:35:00,
2013-02-23 06:40:00,42.2,39.8,30.16,SSE,159,0.0,0.0,91,0.00,,---,0.00,VWS V14.01,2013-02-23 14:40:00,
2013-02-23 06:45:00,42.0,39.6,30.16,SSE,160,0.0,0.0,91,0.00,,---,0.00,VWS V14.01,2013-02-23 14:45:00,
2013-02-23 06:50:00,41.9,39.5,30.17,SSE,160,0.0,0.0,91,0.00,,---,0.00,VWS V14.01,2013-02-23 14:50:00,
2013-02-23 06:55:00,41.7,39.3,30.17,SSE,159,0.0,0.0,91,0.00,,---,0.00,VWS V14.01,2013-02-23 14:55:00,
2013-02-23 07:00:00,41.5,39.1,30.17,SSE,159,0.0,0.0,91,0.00,,---,0.00,VWS V14.01,2013-02-23 15:00:00,
2013-02-23 07:05:00,41.2,38.8,30.17,SSE,159,0.0,0.0,91,0.00,,---,0.00,VWS V14.01,2013-02-23 15:05:00,
2013-02-23 07:10:00,41.1,39.0,30.17,SSE,159,0.0,0.0,92,0.00,,---,0.00,VWS V14.01,2013-02-23 15:10:00,
2013-02-23 07:15:00,40.9,38.8,30.18,SSE,159,0.0,0.0,92,0.00,,---,0.00,VWS V14.01,2013-02-23 15:15:00,
2013-02-23 07:20:00,40.8,38.7,30.18,SSE,159,0.0,0.0,92,0.00,,---,0.00,VWS V14.01,2013-02-23 15:20:00,
2013-02-23 07:25:00,40.9,39.0,30.18,SSE,160,0.0,0.0,93,0.00,,---,0.00,VWS V14.01,2013-02-23 15:25:00,
2013-02-23 07:30:00,41.0,39.1,30.18,SSE,159,0.0,0.0,93,0.00,,---,0.00,VWS V14.01,2013-02-23 15:30:00,
2013-02-23 07:35:00,41.5,39.9,30.19,South,179,0.0,0.0,94,0.00,,---,0.00,VWS V14.01,2013-02-23 15:35:00,
2013-02-23 07:40:00,41.9,40.3,30.19,South,180,0.0,0.0,94,0.00,,---,0.00,VWS V14.01,2013-02-23 15:40:00,
2013-02-23 07:45:00,42.1,40.5,30.19,South,179,0.0,0.0,94,0.00,,---,0.00,VWS V14.01,2013-02-23 15:45:00,
2013-02-23 07:50:00,42.6,41.3,30.19,South,179,0.0,0.0,95,0.00,,---,0.00,VWS V14.01,2013-02-23 15:50:00,
2013-02-23 07:55:00,43.0,41.7,30.20,South,179,0.0,0.0,95,0.00,,---,0.00,VWS V14.01,2013-02-23 15:55:00,
2013-02-23 08:00:00,43.4,42.1,30.20,South,179,0.0,0.0,95,0.00,,---,0.00,VWS V14.01,2013-02-23 16:00:00,
2013-02-23 08:05:00,43.9,42.3,30.20,WNW,286,0.0,1.0,94,0.00,,---,0.00,VWS V14.01,2013-02-23 16:05:00,
2013-02-23 08:10:00,44.3,42.4,30.20,NNW,346,0.0,1.0,93,0.00,,---,0.00,VWS V14.01,2013-02-23 16:10:00,
2013-02-23 08:15:00,44.7,42.5,30.21,NNW,338,0.0,1.0,92,0.00,,---,0.00,VWS V14.01,2013-02-23 16:15:00,
2013-02-23 08:20:00,45.0,42.5,30.21,SW,214,0.0,1.0,91,0.00,,---,0.00,VWS V14.01,2013-02-23 16:20:00,
2013-02-23 08:25:00,45.2,42.2,30.22,NNE,33,0.0,3.0,89,0.00,,---,0.00,VWS V14.01,2013-02-23 16:25:00,
2013-02-23 08:30:00,45.5,42.2,30.22,NW,323,0.0,1.0,88,0.00,,---,0.00,VWS V14.01,2013-02-23 16:30:00,
2013-02-23 08:35:00,46.0,42.3,30.22,NNE,32,2.0,4.0,87,0.00,,---,0.00,VWS V14.01,2013-02-23 16:35:00,
2013-02-23 08:40:00,46.6,42.6,30.22,NNW,347,1.0,3.0,86,0.00,,---,0.00,VWS V14.01,2013-02-23 16:40:00,
2013-02-23 08:45:00,47.1,42.5,30.22,NE,41,3.0,7.0,84,0.00,,---,0.00,VWS V14.01,2013-02-23 16:45:00,
2013-02-23 08:50:00,47.4,42.8,30.23,NW,316,2.0,4.0,84,0.00,,---,0.00,VWS V14.01,2013-02-23 16:50:00,
2013-02-23 08:55:00,47.7,42.8,30.22,WNW,290,2.0,5.0,83,0.00,,---,0.00,VWS V14.01,2013-02-23 16:55:00,
2013-02-23 09:00:00,47.9,42.7,30.23,NNE,19,2.0,2.0,82,0.00,,---,0.00,VWS V14.01,2013-02-23 17:00:00,
2013-02-23 09:05:00,48.1,42.9,30.23,North,360,2.0,6.0,82,0.00,,---,0.00,VWS V14.01,2013-02-23 17:05:00,
2013-02-23 09:10:00,48.5,43.0,30.23,NW,316,1.0,3.0,81,0.00,,---,0.00,VWS V14.01,2013-02-23 17:10:00,
2013-02-23 09:15:00,48.6,43.0,30.23,NW,304,4.0,5.0,81,0.00,,---,0.00,VWS V14.01,2013-02-23 17:15:00,
2013-02-23 09:20:00,48.7,43.1,30.23,NW,311,1.0,5.0,81,0.00,,---,0.00,VWS V14.01,2013-02-23 17:20:00,
2013-02-23 09:25:00,49.2,43.6,30.23,NNE,16,7.0,9.0,81,0.00,,---,0.00,VWS V14.01,2013-02-23 17:25:00,
2013-02-23 09:30:00,49.2,43.3,30.23,NNE,22,6.0,6.0,80,0.00,,---,0.00,VWS V14.01,2013-02-23 17:30:00,
2013-02-23 09:35:00,49.4,43.5,30.23,North,359,3.0,8.0,80,0.00,,---,0.00,VWS V14.01,2013-02-23 17:35:00,
2013-02-23 09:40:00,49.7,44.1,30.23,ESE,108,4.0,7.0,81,0.00,,---,0.00,VWS V14.01,2013-02-23 17:40:00,
2013-02-23 09:45:00,50.2,44.0,30.23,NNE,22,4.0,9.0,79,0.00,,---,0.00,VWS V14.01,2013-02-23 17:45:00,
2013-02-23 09:50:00,50.4,44.1,30.22,North,349,1.0,4.0,79,0.00,,---,0.00,VWS V14.01,2013-02-23 17:50:00,
2013-02-23 09:55:00,50.9,42.9,30.22,NNE,27,2.0,9.0,74,0.00,,---,0.00,VWS V14.01,2013-02-23 17:55:00,
2013-02-23 10:00:00,51.2,41.8,30.23,North,354,4.0,9.0,70,0.00,,---,0.00,VWS V14.01,2013-02-23 18:00:00,
2013-02-23 10:05:00,51.5,40.9,30.23,NNE,18,3.0,9.0,67,0.00,,---,0.00,VWS V14.01,2013-02-23 18:05:00,
2013-02-23 10:10:00,52.0,39.4,30.23,NW,316,4.0,5.0,62,0.00,,---,0.00,VWS V14.01,2013-02-23 18:10:00,
2013-02-23 10:15:00,52.0,37.2,30.23,NE,39,6.0,8.0,57,0.00,,---,0.00,VWS V14.01,2013-02-23 18:15:00,
2013-02-23 10:20:00,51.9,36.7,30.23,NW,307,3.0,9.0,56,0.00,,---,0.00,VWS V14.01,2013-02-23 18:20:00,
2013-02-23 10:25:00,52.3,36.6,30.22,NW,304,2.0,9.0,55,0.00,,---,0.00,VWS V14.01,2013-02-23 18:25:00,
2013-02-23 10:30:00,52.6,36.5,30.22,WNW,295,2.0,7.0,54,0.00,,---,0.00,VWS V14.01,2013-02-23 18:30:00,
2013-02-23 10:35:00,52.7,35.1,30.22,NNE,30,6.0,10.0,51,0.00,,---,0.00,VWS V14.01,2013-02-23 18:35:00,
2013-02-23 10:40:00,52.7,34.6,30.23,North,11,6.0,10.0,50,0.00,,---,0.00,VWS V14.01,2013-02-23 18:40:00,
2013-02-23 10:45:00,52.9,34.8,30.22,NNW,347,3.0,12.0,50,0.00,,---,0.00,VWS V14.01,2013-02-23 18:45:00,
2013-02-23 10:50:00,53.3,35.2,30.22,NW,321,1.0,8.0,50,0.00,,---,0.00,VWS V14.01,2013-02-23 18:50:00,
2013-02-23 10:55:00,53.7,34.0,30.22,NNE,20,6.0,9.0,47,0.00,,---,0.00,VWS V14.01,2013-02-23 18:55:00,
2013-02-23 11:00:00,53.7,34.0,30.22,NNE,22,6.0,7.0,47,0.00,,---,0.00,VWS V14.01,2013-02-23 19:00:00,
2013-02-23 11:05:00,54.0,32.6,30.22,NNE,22,8.0,13.0,44,0.00,,---,0.00,VWS V14.01,2013-02-23 19:05:00,
2013-02-23 11:10:00,54.0,32.6,30.22,NNW,329,3.0,8.0,44,0.00,,---,0.00,VWS V14.01,2013-02-23 19:10:00,
2013-02-23 11:15:00,54.3,33.4,30.22,NW,326,2.0,11.0,45,0.00,,---,0.00,VWS V14.01,2013-02-23 19:15:00,
2013-02-23 11:20:00,54.7,32.7,30.22,NE,34,2.0,3.0,43,0.00,,---,0.00,VWS V14.01,2013-02-23 19:20:00,
2013-02-23 11:25:00,55.0,32.3,30.22,NE,42,2.0,7.0,42,0.00,,---,0.00,VWS V14.01,2013-02-23 19:25:00,
2013-02-23 11:30:00,55.1,32.4,30.22,NW,314,3.0,4.0,42,0.00,,---,0.00,VWS V14.01,2013-02-23 19:30:00,
2013-02-23 11:35:00,55.6,31.7,30.22,NE,50,3.0,8.0,40,0.00,,---,0.00,VWS V14.01,2013-02-23 19:35:00,
2013-02-23 11:40:00,55.5,31.0,30.22,North,353,9.0,12.0,39,0.00,,---,0.00,VWS V14.01,2013-02-23 19:40:00,
2013-02-23 11:45:00,55.3,30.8,30.22,NNE,13,7.0,12.0,39,0.00,,---,0.00,VWS V14.01,2013-02-23 19:45:00,
2013-02-23 11:50:00,55.2,31.3,30.21,North,8,4.0,8.0,40,0.00,,---,0.00,VWS V14.01,2013-02-23 19:50:00,
2013-02-23 11:55:00,55.6,30.4,30.21,NNW,335,5.0,8.0,38,0.00,,---,0.00,VWS V14.01,2013-02-23 19:55:00,
2013-02-23 12:00:00,56.0,32.0,30.21,NE,36,6.0,8.0,40,0.00,,---,0.00,VWS V14.01,2013-02-23 20:00:00,
2013-02-23 12:05:00,55.9,31.3,30.21,NNE,29,6.0,11.0,39,0.00,,---,0.00,VWS V14.01,2013-02-23 20:05:00,
2013-02-23 12:10:00,55.9,30.0,30.21,NNE,22,6.0,8.0,37,0.00,,---,0.00,VWS V14.01,2013-02-23 20:10:00,
2013-02-23 12:15:00,56.0,30.1,30.20,NW,326,4.0,12.0,37,0.00,,---,0.00,VWS V14.01,2013-02-23 20:15:00,
2013-02-23 12:20:00,56.6,30.0,30.20,NNE,12,5.0,5.0,36,0.00,,---,0.00,VWS V14.01,2013-02-23 20:20:00,
2013-02-23 12:25:00,57.0,28.9,30.19,North,351,6.0,12.0,34,0.00,,---,0.00,VWS V14.01,2013-02-23 20:25:00,
2013-02-23 12:30:00,57.2,29.8,30.19,NNE,16,6.0,8.0,35,0.00,,---,0.00,VWS V14.01,2013-02-23 20:30:00,
2013-02-23 12:35:00,57.2,29.8,30.19,NNE,24,6.0,13.0,35,0.00,,---,0.00,VWS V14.01,2013-02-23 20:35:00,
2013-02-23 12:40:00,57.3,28.5,30.19,NNE,26,6.0,9.0,33,0.00,,---,0.00,VWS V14.01,2013-02-23 20:40:00,
2013-02-23 12:45:00,57.3,28.5,30.19,WNW,301,3.0,9.0,33,0.00,,---,0.00,VWS V14.01,2013-02-23 20:45:00,
2013-02-23 12:50:00,57.2,27.6,30.19,NW,321,4.0,6.0,32,0.00,,---,0.00,VWS V14.01,2013-02-23 20:50:00,
2013-02-23 12:55:00,57.2,28.4,30.18,NW,315,3.0,14.0,33,0.00,,---,0.00,VWS V14.01,2013-02-23 20:55:00,
2013-02-23 13:00:00,57.5,29.4,30.18,NNW,335,5.0,5.0,34,0.00,,---,0.00,VWS V14.01,2013-02-23 21:00:00,
2013-02-23 13:05:00,57.6,28.7,30.18,North,5,6.0,12.0,33,0.00,,---,0.00,VWS V14.01,2013-02-23 21:05:00,
2013-02-23 13:10:00,57.6,28.7,30.17,North,8,7.0,12.0,33,0.00,,---,0.00,VWS V14.01,2013-02-23 21:10:00,
2013-02-23 13:15:00,57.2,29.1,30.17,NNE,23,5.0,12.0,34,0.00,,---,0.00,VWS V14.01,2013-02-23 21:15:00,
2013-02-23 13:20:00,57.6,29.5,30.17,North,353,4.0,4.0,34,0.00,,---,0.00,VWS V14.01,2013-02-23 21:20:00,
2013-02-23 13:25:00,58.3,29.3,30.17,North,8,2.0,6.0,33,0.00,,---,0.00,VWS V14.01,2013-02-23 21:25:00,
2013-02-23 13:30:00,58.6,29.6,30.17,NNW,342,4.0,10.0,33,0.00,,---,0.00,VWS V14.01,2013-02-23 21:30:00,
2013-02-23 13:35:00,58.4,29.4,30.16,NNW,347,6.0,10.0,33,0.00,,---,0.00,VWS V14.01,2013-02-23 21:35:00,
2013-02-23 13:40:00,58.2,29.3,30.16,North,9,5.0,10.0,33,0.00,,---,0.00,VWS V14.01,2013-02-23 21:40:00,
2013-02-23 13:45:00,58.3,30.8,30.16,NNW,332,5.0,10.0,35,0.00,,---,0.00,VWS V14.01,2013-02-23 21:45:00,
2013-02-23 13:50:00,58.4,29.4,30.16,NW,319,4.0,5.0,33,0.00,,---,0.00,VWS V14.01,2013-02-23 21:50:00,
2013-02-23 13:55:00,58.7,30.4,30.16,NE,39,3.0,8.0,34,0.00,,---,0.00,VWS V14.01,2013-02-23 21:55:00,
2013-02-23 14:00:00,58.8,30.5,30.16,NNE,20,3.0,3.0,34,0.00,,---,0.00,VWS V14.01,2013-02-23 22:00:00,
2013-02-23 14:05:00,59.0,29.2,30.16,NNE,26,4.0,8.0,32,0.00,,---,0.00,VWS V14.01,2013-02-23 22:05:00,
2013-02-23 14:10:00,59.1,31.5,30.15,NNE,25,6.0,7.0,35,0.00,,---,0.00,VWS V14.01,2013-02-23 22:10:00,
2013-02-23 14:15:00,59.4,29.6,30.15,North,1,3.0,9.0,32,0.00,,---,0.00,VWS V14.01,2013-02-23 22:15:00,
2013-02-23 14:20:00,59.6,30.5,30.15,NE,34,5.0,5.0,33,0.00,,---,0.00,VWS V14.01,2013-02-23 22:20:00,
2013-02-23 14:25:00,59.1,29.3,30.15,NNE,27,3.0,12.0,32,0.00,,---,0.00,VWS V14.01,2013-02-23 22:25:00,
2013-02-23 14:30:00,59.1,30.0,30.15,North,6,1.0,3.0,33,0.00,,---,0.00,VWS V14.01,2013-02-23 22:30:00,
2013-02-23 14:35:00,59.6,29.7,30.14,NW,314,2.0,7.0,32,0.00,,---,0.00,VWS V14.01,2013-02-23 22:35:00,
2013-02-23 14:40:00,59.8,29.1,30.14,NW,305,2.0,6.0,31,0.00,,---,0.00,VWS V14.01,2013-02-23 22:40:00,
2013-02-23 14:45:00,59.9,29.2,30.14,WNW,300,2.0,6.0,31,0.00,,---,0.00,VWS V14.01,2013-02-23 22:45:00,
2013-02-23 14:50:00,60.2,29.5,30.14,NNW,340,2.0,4.0,31,0.00,,---,0.00,VWS V14.01,2013-02-23 22:50:00,
2013-02-23 14:55:00,60.5,28.9,30.14,NNW,333,5.0,8.0,30,0.00,,---,0.00,VWS V14.01,2013-02-23 22:55:00,
2013-02-23 15:00:00,60.3,28.8,30.14,NNW,341,4.0,7.0,30,0.00,,---,0.00,VWS V14.01,2013-02-23 23:00:00,
2013-02-23 15:05:00,60.4,28.9,30.14,SSW,212,2.0,7.0,30,0.00,,---,0.00,VWS V14.01,2013-02-23 23:05:00,
2013-02-23 15:10:00,60.5,28.1,30.14,WNW,285,4.0,6.0,29,0.00,,---,0.00,VWS V14.01,2013-02-23 23:10:00,
2013-02-23 15:15:00,60.4,28.0,30.14,NNW,341,3.0,11.0,29,0.00,,---,0.00,VWS V14.01,2013-02-23 23:15:00,
2013-02-23 15:20:00,60.0,27.7,30.14,NNE,23,9.0,12.0,29,0.00,,---,0.00,VWS V14.01,2013-02-23 23:20:00,
2013-02-23 15:25:00,59.7,28.2,30.14,NNE,31,1.0,12.0,30,0.00,,---,0.00,VWS V14.01,2013-02-23 23:25:00,
2013-02-23 15:30:00,59.8,25.8,30.14,NE,39,2.0,6.0,27,0.00,,---,0.00,VWS V14.01,2013-02-23 23:30:00,
2013-02-23 15:35:00,59.8,27.5,30.14,NE,53,4.0,8.0,29,0.00,,---,0.00,VWS V14.01,2013-02-23 23:35:00,
2013-02-23 15:40:00,59.7,26.6,30.14,North,357,3.0,3.0,28,0.00,,---,0.00,VWS V14.01,2013-02-23 23:40:00,
2013-02-23 15:45:00,59.6,26.5,30.14,NNE,12,5.0,9.0,28,0.00,,---,0.00,VWS V14.01,2013-02-23 23:45:00,
2013-02-23 15:50:00,59.4,26.3,30.14,NW,324,2.0,4.0,28,0.00,,---,0.00,VWS V14.01,2013-02-23 23:50:00,
2013-02-23 15:55:00,59.3,25.4,30.14,NNE,18,4.0,13.0,27,0.00,,---,0.00,VWS V14.01,2013-02-23 23:55:00,
2013-02-23 16:00:00,59.3,26.2,30.14,NNW,347,5.0,5.0,28,0.00,,---,0.00,VWS V14.01,2013-02-24 00:00:00,
2013-02-23 16:05:00,59.1,24.3,30.14,NNW,343,4.0,13.0,26,0.00,,---,0.00,VWS V14.01,2013-02-24 00:05:00,
2013-02-23 16:10:00,59.0,25.1,30.14,North,11,2.0,5.0,27,0.00,,---,0.00,VWS V14.01,2013-02-24 00:10:00,
2013-02-23 16:15:00,58.9,25.9,30.14,ENE,65,8.0,10.0,28,0.00,,---,0.00,VWS V14.01,2013-02-24 00:15:00,
2013-02-23 16:20:00,58.8,26.6,30.14,NNE,25,6.0,11.0,29,0.00,,---,0.00,VWS V14.01,2013-02-24 00:20:00,
2013-02-23 16:25:00,58.7,26.5,30.14,NNE,24,10.0,11.0,29,0.00,,---,0.00,VWS V14.01,2013-02-24 00:25:00,
2013-02-23 16:30:00,58.6,26.5,30.14,NNE,30,5.0,8.0,29,0.00,,---,0.00,VWS V14.01,2013-02-24 00:30:00,
2013-02-23 16:35:00,58.7,28.2,30.14,NE,53,5.0,8.0,31,0.00,,---,0.00,VWS V14.01,2013-02-24 00:35:00,
2013-02-23 16:40:00,58.6,26.5,30.14,NE,38,5.0,10.0,29,0.00,,---,0.00,VWS V14.01,2013-02-24 00:40:00,
2013-02-23 16:45:00,58.5,26.4,30.14,NE,41,2.0,12.0,29,0.00,,---,0.00,VWS V14.01,2013-02-24 00:45:00,
2013-02-23 16:50:00,58.3,27.0,30.14,North,356,4.0,12.0,30,0.00,,---,0.00,VWS V14.01,2013-02-24 00:50:00,
2013-02-23 16:55:00,58.4,27.1,30.14,NNE,25,3.0,12.0,30,0.00,,---,0.00,VWS V14.01,2013-02-24 00:55:00,
2013-02-23 17:00:00,58.3,27.0,30.14,North,11,3.0,8.0,30,0.00,,---,0.00,VWS V14.01,2013-02-24 01:00:00,
2013-02-23 17:05:00,58.2,26.1,30.14,NNW,329,4.0,11.0,29,0.00,,---,0.00,VWS V14.01,2013-02-24 01:05:00,
2013-02-23 17:10:00,58.0,26.8,30.14,NNE,20,4.0,11.0,30,0.00,,---,0.00,VWS V14.01,2013-02-24 01:10:00,
2013-02-23 17:15:00,57.8,26.6,30.14,NW,318,3.0,11.0,30,0.00,,---,0.00,VWS V14.01,2013-02-24 01:15:00,
2013-02-23 17:20:00,57.6,27.2,30.14,NNE,27,5.0,9.0,31,0.00,,---,0.00,VWS V14.01,2013-02-24 01:20:00,
2013-02-23 17:25:00,57.5,27.1,30.15,NNW,340,1.0,9.0,31,0.00,,---,0.00,VWS V14.01,2013-02-24 01:25:00,
2013-02-23 17:30:00,57.2,26.9,30.15,North,360,2.0,6.0,31,0.00,,---,0.00,VWS V14.01,2013-02-24 01:30:00,
2013-02-23 17:35:00,56.9,28.1,30.15,NNE,31,4.0,7.0,33,0.00,,---,0.00,VWS V14.01,2013-02-24 01:35:00,
2013-02-23 17:40:00,56.5,27.0,30.14,North,1,3.0,6.0,32,0.00,,---,0.00,VWS V14.01,2013-02-24 01:40:00,
2013-02-23 17:45:00,56.2,27.5,30.15,NNE,22,2.0,6.0,33,0.00,,---,0.00,VWS V14.01,2013-02-24 01:45:00,
2013-02-23 17:50:00,55.9,28.0,30.15,ENE,71,5.0,5.0,34,0.00,,---,0.00,VWS V14.01,2013-02-24 01:50:00,
2013-02-23 17:55:00,55.7,28.5,30.16,NW,325,2.0,8.0,35,0.00,,---,0.00,VWS V14.01,2013-02-24 01:55:00,
2013-02-23 18:00:00,55.4,28.2,30.16,NNE,16,1.0,4.0,35,0.00,,---,0.00,VWS V14.01,2013-02-24 02:00:00,
2013-02-23 18:05:00,55.1,28.6,30.16,NNW,338,0.0,4.0,36,0.00,,---,0.00,VWS V14.01,2013-02-24 02:05:00,
2013-02-23 18:10:00,54.8,28.4,30.16,NW,312,2.0,3.0,36,0.00,,---,0.00,VWS V14.01,2013-02-24 02:10:00,
2013-02-23 18:15:00,54.5,28.8,30.16,NNE,30,0.0,4.0,37,0.00,,---,0.00,VWS V14.01,2013-02-24 02:15:00,
2013-02-23 18:20:00,54.3,28.6,30.17,NNE,20,2.0,4.0,37,0.00,,---,0.00,VWS V14.01,2013-02-24 02:20:00,
2013-02-23 18:25:00,54.2,28.5,30.17,NNE,27,2.0,4.0,37,0.00,,---,0.00,VWS V14.01,2013-02-24 02:25:00,
2013-02-23 18:30:00,54.1,28.4,30.17,North,4,2.0,5.0,37,0.00,,---,0.00,VWS V14.01,2013-02-24 02:30:00,
2013-02-23 18:35:00,53.9,28.2,30.17,NNE,13,3.0,5.0,37,0.00,,---,0.00,VWS V14.01,2013-02-24 02:35:00,
2013-02-23 18:40:00,53.7,28.7,30.17,NNE,27,4.0,5.0,38,0.00,,---,0.00,VWS V14.01,2013-02-24 02:40:00,
2013-02-23 18:45:00,53.3,28.4,30.17,NNE,23,2.0,5.0,38,0.00,,---,0.00,VWS V14.01,2013-02-24 02:45:00,
2013-02-23 18:50:00,53.0,28.1,30.17,NNE,20,3.0,4.0,38,0.00,,---,0.00,VWS V14.01,2013-02-24 02:50:00,
2013-02-23 18:55:00,52.8,27.9,30.17,NNE,32,5.0,5.0,38,0.00,,---,0.00,VWS V14.01,2013-02-24 02:55:00,
2013-02-23 19:00:00,52.7,27.8,30.16,NE,39,3.0,6.0,38,0.00,,---,0.00,VWS V14.01,2013-02-24 03:00:00,
2013-02-23 19:05:00,52.7,27.8,30.16,NNE,15,4.0,6.0,38,0.00,,---,0.00,VWS V14.01,2013-02-24 03:05:00,
2013-02-23 19:10:00,52.6,28.4,30.16,NE,39,5.0,6.0,39,0.00,,---,0.00,VWS V14.01,2013-02-24 03:10:00,
2013-02-23 19:16:00,52.5,28.3,30.16,NNW,339,1.0,6.0,39,0.00,,---,0.00,VWS V14.01,2013-02-24 03:16:00,
2013-02-23 19:20:00,52.5,27.6,30.16,NNW,342,1.0,7.0,38,0.00,,---,0.00,VWS V14.01,2013-02-24 03:20:00,
2013-02-23 19:21:00,52.6,27.7,30.16,NNE,23,6.0,7.0,38,0.00,,---,0.00,VWS V14.01,2013-02-24 03:21:00,
2013-02-23 19:26:00,52.6,27.7,30.16,NE,37,6.0,9.0,38,0.00,,---,0.00,VWS V14.01,2013-02-24 03:26:00,
2013-02-23 19:30:00,50.4,28.8,30.17,NNE,18,3.0,8.0,43,0.00,,---,0.00,VWS V14.01,2013-02-24 03:30:00,
2013-02-23 19:31:00,52.6,27.7,30.16,NNE,22,4.0,6.0,38,0.00,,---,0.00,VWS V14.01,2013-02-24 03:31:00,
2013-02-23 19:36:00,52.5,27.6,30.16,NNE,18,3.0,8.0,38,0.00,,---,0.00,VWS V14.01,2013-02-24 03:36:00,
2013-02-23 19:40:00,52.4,28.2,30.16,NE,34,4.0,8.0,39,0.00,,---,0.00,VWS V14.01,2013-02-24 03:40:00,
2013-02-23 19:41:00,52.3,28.1,30.16,NNE,29,1.0,5.0,39,0.00,,---,0.00,VWS V14.01,2013-02-24 03:41:00,
2013-02-23 19:45:00,52.1,27.9,30.16,NNE,18,4.0,8.0,39,0.00,,---,0.00,VWS V14.01,2013-02-24 03:45:00,
2013-02-23 19:50:00,51.9,28.4,30.16,NW,326,3.0,7.0,40,0.00,,---,0.00,VWS V14.01,2013-02-24 03:50:00,
2013-02-23 19:55:00,51.6,28.1,30.17,NNE,18,8.0,9.0,40,0.00,,---,0.00,VWS V14.01,2013-02-24 03:55:00,
2013-02-23 20:00:00,51.4,28.5,30.16,NNE,15,4.0,6.0,41,0.00,,---,0.00,VWS V14.01,2013-02-24 04:00:00,
2013-02-23 20:05:00,51.3,28.4,30.16,NNE,13,4.0,8.0,41,0.00,,---,0.00,VWS V14.01,2013-02-24 04:05:00,
2013-02-23 20:10:00,51.0,28.1,30.17,NNE,30,3.0,5.0,41,0.00,,---,0.00,VWS V14.01,2013-02-24 04:10:00,
2013-02-23 20:15:00,50.9,28.6,30.17,NNE,30,4.0,6.0,42,0.00,,---,0.00,VWS V14.01,2013-02-24 04:15:00,
2013-02-23 20:20:00,50.8,29.1,30.17,NNE,22,2.0,8.0,43,0.00,,---,0.00,VWS V14.01,2013-02-24 04:20:00,
2013-02-23 20:26:00,50.5,28.9,30.17,NNE,29,4.0,8.0,43,0.00,,---,0.00,VWS V14.01,2013-02-24 04:26:00,
2013-02-23 20:30:00,48.4,27.5,30.18,NNW,347,0.0,2.0,44,0.00,,---,0.00,VWS V14.01,2013-02-24 04:30:00,
2013-02-23 20:31:00,50.3,28.7,30.17,North,9,2.0,3.0,43,0.00,,---,0.00,VWS V14.01,2013-02-24 04:31:00,
2013-02-23 20:36:00,50.1,29.0,30.17,NNE,23,2.0,7.0,44,0.00,,---,0.00,VWS V14.01,2013-02-24 04:36:00,
2013-02-23 20:40:00,48.3,26.3,30.18,NNE,23,0.0,4.0,42,0.00,,---,0.00,VWS V14.01,2013-02-24 04:40:00,
2013-02-23 20:41:00,50.0,29.0,30.17,NNE,16,1.0,5.0,44,0.00,,---,0.00,VWS V14.01,2013-02-24 04:41:00,
2013-02-23 20:46:00,49.7,29.2,30.17,NNE,22,3.0,5.0,45,0.00,,---,0.00,VWS V14.01,2013-02-24 04:46:00,
2013-02-23 20:50:00,49.6,29.1,30.17,North,1,0.0,6.0,45,0.00,,---,0.00,VWS V14.01,2013-02-24 04:50:00,
2013-02-23 20:51:00,49.5,29.1,30.17,NE,34,2.0,3.0,45,0.00,,---,0.00,VWS V14.01,2013-02-24 04:51:00,
2013-02-23 20:56:00,49.2,29.3,30.17,NNE,19,1.0,6.0,46,0.00,,---,0.00,VWS V14.01,2013-02-24 04:56:00,
2013-02-23 21:00:00,49.0,29.1,30.17,NNW,338,5.0,5.0,46,0.00,,---,0.00,VWS V14.01,2013-02-24 05:00:00,
2013-02-23 21:05:00,48.8,28.4,30.17,NNW,337,3.0,5.0,45,0.00,,---,0.00,VWS V14.01,2013-02-24 05:05:00,
2013-02-23 21:10:00,48.7,28.3,30.17,NE,39,1.0,2.0,45,0.00,,---,0.00,VWS V14.01,2013-02-24 05:10:00,
2013-02-23 21:15:00,48.5,28.1,30.17,NE,34,1.0,3.0,45,0.00,,---,0.00,VWS V14.01,2013-02-24 05:15:00,
2013-02-23 21:20:00,48.6,27.7,30.17,North,359,1.0,2.0,44,0.00,,---,0.00,VWS V14.01,2013-02-24 05:20:00,
2013-02-23 21:25:00,48.5,27.6,30.17,NNE,12,1.0,2.0,44,0.00,,---,0.00,VWS V14.01,2013-02-24 05:25:00,
2013-02-23 21:30:00,48.4,27.0,30.18,NE,37,1.0,2.0,43,0.00,,---,0.00,VWS V14.01,2013-02-24 05:30:00,
2013-02-23 21:35:00,48.3,26.9,30.18,NNW,340,1.0,2.0,43,0.00,,---,0.00,VWS V14.01,2013-02-24 05:35:00,
2013-02-23 21:40:00,48.3,26.9,30.18,NNE,23,2.0,2.0,43,0.00,,---,0.00,VWS V14.01,2013-02-24 05:40:00,
2013-02-23 21:45:00,48.2,26.8,30.18,NNE,32,1.0,3.0,43,0.00,,---,0.00,VWS V14.01,2013-02-24 05:45:00,
2013-02-23 21:50:00,48.0,26.6,30.18,NNE,27,0.0,1.0,43,0.00,,---,0.00,VWS V14.01,2013-02-24 05:50:00,
2013-02-23 21:55:00,47.8,25.8,30.18,NNE,15,1.0,2.0,42,0.00,,---,0.00,VWS V14.01,2013-02-24 05:55:00,
2013-02-23 22:00:00,47.6,25.7,30.18,North,358,1.0,2.0,42,0.00,,---,0.00,VWS V14.01,2013-02-24 06:00:00,
2013-02-23 22:05:00,47.4,25.5,30.18,NNE,30,2.0,2.0,42,0.00,,---,0.00,VWS V14.01,2013-02-24 06:05:00,
2013-02-23 22:10:00,47.6,24.5,30.18,North,349,2.0,3.0,40,0.00,,---,0.00,VWS V14.01,2013-02-24 06:10:00,
2013-02-23 22:15:00,47.8,24.1,30.18,NNE,18,3.0,4.0,39,0.00,,---,0.00,VWS V14.01,2013-02-24 06:15:00,
2013-02-23 22:20:00,48.1,23.7,30.18,NNE,19,3.0,5.0,38,0.00,,---,0.00,VWS V14.01,2013-02-24 06:20:00,
2013-02-23 22:25:00,48.1,24.3,30.18,NNE,22,3.0,5.0,39,0.00,,---,0.00,VWS V14.01,2013-02-24 06:25:00,
2013-02-23 22:30:00,47.9,24.1,30.18,NE,37,3.0,3.0,39,0.00,,---,0.00,VWS V14.01,2013-02-24 06:30:00,
2013-02-23 22:35:00,47.5,24.4,30.18,NNE,16,2.0,3.0,40,0.00,,---,0.00,VWS V14.01,2013-02-24 06:35:00,
2013-02-23 22:40:00,47.3,24.2,30.18,North,8,1.0,2.0,40,0.00,,---,0.00,VWS V14.01,2013-02-24 06:40:00,
2013-02-23 22:45:00,47.1,24.0,30.18,North,1,2.0,4.0,40,0.00,,---,0.00,VWS V14.01,2013-02-24 06:45:00,
2013-02-23 22:50:00,46.7,24.8,30.18,North,11,1.0,3.0,42,0.00,,---,0.00,VWS V14.01,2013-02-24 06:50:00,
2013-02-23 22:55:00,46.2,25.0,30.18,NNE,17,0.0,3.0,43,0.00,,---,0.00,VWS V14.01,2013-02-24 06:55:00,
2013-02-23 23:00:00,45.7,25.0,30.18,North,352,1.0,1.0,44,0.00,,---,0.00,VWS V14.01,2013-02-24 07:00:00,
2013-02-23 23:05:00,45.3,25.2,30.18,NNE,22,0.0,4.0,45,0.00,,---,0.00,VWS V14.01,2013-02-24 07:05:00,
2013-02-23 23:10:00,45.1,25.0,30.18,North,355,0.0,1.0,45,0.00,,---,0.00,VWS V14.01,2013-02-24 07:10:00,
2013-02-23 23:15:00,44.9,25.4,30.18,North,352,1.0,2.0,46,0.00,,---,0.00,VWS V14.01,2013-02-24 07:15:00,
2013-02-23 23:20:00,44.5,26.0,30.18,NE,41,1.0,2.0,48,0.00,,---,0.00,VWS V14.01,2013-02-24 07:20:00,
2013-02-23 23:25:00,44.2,26.3,30.18,North,5,0.0,2.0,49,0.00,,---,0.00,VWS V14.01,2013-02-24 07:25:00,
2013-02-23 23:30:00,43.9,27.0,30.18,NNE,23,0.0,1.0,51,0.00,,---,0.00,VWS V14.01,2013-02-24 07:30:00,
2013-02-23 23:35:00,43.6,26.7,30.18,North,1,1.0,2.0,51,0.00,,---,0.00,VWS V14.01,2013-02-24 07:35:00,
2013-02-23 23:40:00,43.5,27.1,30.18,NW,321,1.0,1.0,52,0.00,,---,0.00,VWS V14.01,2013-02-24 07:40:00,
2013-02-23 23:45:00,43.3,26.9,30.18,NNE,20,5.0,6.0,52,0.00,,---,0.00,VWS V14.01,2013-02-24 07:45:00,
2013-02-23 23:50:00,43.4,27.0,30.18,NNE,20,5.0,5.0,52,0.00,,---,0.00,VWS V14.01,2013-02-24 07:50:00,
2013-02-23 23:55:00,43.7,26.3,30.18,North,354,1.0,5.0,50,0.00,,---,0.00,VWS V14.01,2013-02-24 07:55:00,